Погода в Устиновке

Россия / Приморский край     44°15′10″N   135°13′48″E
темп.,
°C
ветер,
м/с
пор.,
м/с
влажн.,
%
обл.,
%
осадки,
мм/ч
давл.,
гПа
погр.,
м
19 января, вт
вт1901:00−20сз61376100 0.0 1019768
04:00−24сз7157652 0.0 1021730
07:00−26сз817751 0.0 1025922
10:00−25сз818721 0.0 1027849
13:00−22сз715700 0.0 1028941
16:00−21сз715700 0.0 1028813
19:00−24зсз515780 0.0 1031578
22:00−27зсз310870 0.0 1031310
20 января, ср
ср2001:00−29зсз23900 0.0 103298
04:00−29зсз22900 0.0 103163
07:00−28зсз22850 0.0 103248
10:00−24зсз23770 0.0 1031125
13:00−15зсз25630 0.0 1029456
16:00−10зсз246517 0.0 1025565
19:00−14зсз1183100 0.0 102420
22:00−14сз118689 0.0 102320
21 января, чт
чт2101:00−14зсз129491 0.0 102120
04:00−13з229161 0.0 102021
07:00−11з25890 0.0 1020191
10:00−6з312849 0.0 1021828
13:00−4зсз497318 0.0 1020839
16:00−4зсз377559 0.0 1019702
19:00−10сз2289100 0.0 101921
22:00−12сз2290100 0.0 101824
22 января, пт
пт2201:00−13зсз2287100 0.0 101729
04:00−13зсз2285100 0.0 101627
07:00−12зсз229191 0.0 101632
10:00−11сз398347 0.0 1019558
13:00−10сз612690 0.0 10201137
16:00−12сз714640 0.0 10221177
19:00−18сз315790 0.0 1025834
22:00−21зсз22900 0.0 102869
23 января, сб
сб2301:00−23зсз22940 0.0 103047
04:00−24зсз22930 0.0 103151
07:00−24зсз23920 0.0 103163
10:00−21зсз34840 0.0 1032164
13:00−13зсз38620 0.0 1030641
16:00−11зсз37630 0.0 1029608
19:00−17сз22850 0.0 103125
22:00−20зсз22860 0.0 103229